www.pogodaiklimat.ru

Погода и климат >> Архив погоды >> Великобритания >> Мидл Уоллоп


ПОГОДА в Мидл Уоллоп

  • Прогноз погоды в Мидл Уоллоп
  • Монитор погоды в Мидл Уоллоп

АРХИВ ПОГОДЫ в Мидл Уоллоп

Время (UTC), дата Ветер
(напр.,м/с)
 
Видим.   Явления Облачность Т
(С)
Тd
(С)
f
(%)
Тe
(С)
Тes
(С)
Комфортность P
(гПа)
Po
(гПа)
Тmin
(С)
Tmax
(С)
R
(мм)
R24
(мм)
S
(см)
13 9.06 Ю 3 40 км н/о +16.9 +6.1 49 +17 +17 1019.9 1009.1
14 9.06 ЮЗ 5 29 км н/о +14.8 +7.5 62 +14 +14 1020.0 1009.1
15 9.06 ЮВ 4 50 км н/о +15.8 +8.3 61 +15 +15 1019.5 1008.7
16 9.06 З 4 55 км н/о +16.7 +7.0 53 +16 +16 1019.2 1008.4
17 9.06 З 3 50 км н/о +14.8 +7.0 60 +14 +14 1019.3 1008.4
18 9.06 СЗ 4 60 км н/о +13.1 +8.5 74 +11 +11 1019.4 1008.5 +17.8
19 9.06 СЗ 2 40 км н/о +14.2 +8.7 69 +14 +14 1019.2 1008.3
20 9.06 З 1 45 км н/о +13.6 +7.9 68 +15 +15 1019.0 1008.1
21 9.06 СЗ 1 40 км н/о +11.7 +8.4 80 +12 +12 1019.3 1008.4
22 9.06 С 2 30 км н/о +11.2 +8.3 82 +10 +10 1019.3 1008.3
23 9.06 С 2 30 км н/о +9.8 +7.3 84 +9 +9 1019.3 1008.2
00 10.06 СЗ 2 30 км н/о +8.4 +6.8 90 +7 +7 1018.9 1007.8
01 10.06 СЗ 2 45 км н/о +8.6 +7.0 90 +7 +7 1018.6 1007.5
02 10.06 СЗ 1 27 км н/о +8.3 +6.7 90 +7 +7 1018.3 1007.2
03 10.06 СЗ 1 30 км н/о +8.2 +7.3 94 +7 +7 1017.7 1006.6
04 10.06 З 2 19 км н/о +7.6 +6.8 95 +6 +6 1017.1 1006.0
05 10.06 СЗ 2 13 км 9/0
[Ac As]
+8.1 +7.4 95 +6 +7 1016.9 1005.8
06 10.06 СЗ 2 18 км 9/0
[Ac As]
+8.8 +7.9 94 +7 +8 1016.7 1005.6 +7.2
07 10.06 С 2 25 км 9/1 300 м
[Cu hum Ac As Ci fib]
+10.9 +8.5 85 +10 +12 1016.6 1005.6
08 10.06 С 3 30 км 9/9 400 м
[Cu Sc Ac trans]
+11.7 +8.5 81 +10 +11 1016.5 1005.5
09 10.06 СВ 2 22 км слаб. дождь 10/9 450 м
[Cu Sc Ac trans]
+12.2 +8.8 80 +11 +12 1016.3 1005.4
10 10.06 С 2 22 км слаб. дождь 10/9 330 м
[Cu Sc Ac trans]
+12.0 +9.3 84 +11 +12 1016.2 1005.2
11 10.06 СВ 2 20 км слаб. дождь 10/9 300 м
[Cu Sc Ac trans]
+12.2 +9.7 85 +11 +12 1015.8 1004.9
12 10.06 СВ 3 10 км слаб. дождь 10/10 180 м
[Sc]
+11.8 +10.3 91 +10 +10 1015.4 1004.5 1
13 10.06 С 3 8000 м слаб. дождь 10/3 330 м
[Sc As op]
+12.2 +10.0 86 +11 +13 1015.0 1004.1
14 10.06 СЗ 3 12 км слаб. дождь 10/10 210 м
[Sc]
+12.3 +10.5 89 +11 +11 1014.4 1003.5
15 10.06 С 3 12 км слаб. дождь 10/4 360 м
[Cu Sc As op]
+12.2 +10.2 88 +11 +12 1013.9 1003.0
16 10.06 С 5 10 км слаб. дождь 10/4 330 м
[Cu Sc As op]
+11.8 +10.1 89 +9 +10 1013.9 1003.0
17 10.06 С 6 5000 м слаб. дождь 10/6 360 м
[Frnb As op]
+10.6 +8.9 89 +7 +7 1013.9 1003.0
18 10.06 С 5 7000 м дождь 10/9 210 м
[Sc As op]
+9.6 +8.4 92 +6 +6 1013.8 1002.8 +12.5 6
19 10.06 С 4 4500 м сильн. дождь 10/6 300 м
[Sc As op]
+9.1 +8.3 95 +6 +6 1013.3 1002.3
20 10.06 СЗ 4 6000 м н/о +9.0 +8.2 95 +6 +6 1012.8 1001.8
21 10.06 СЗ 4 12 км н/о +9.1 +8.4 95 +6 +6 1012.4 1001.4
22 10.06 С 5 21 км н/о +9.6 +8.8 95 +6 +6 1012.0 1001.0
23 10.06 С 5 4000 м н/о +9.9 +9.1 95 +7 +7 1011.8 1000.8
00 11.06 С 5 35 км н/о +9.9 +8.8 93 +7 +7 1010.9 999.9 22
01 11.06 С 6 45 км н/о +10.1 +8.7 91 +7 +7 1010.3 999.4
02 11.06 С 7 21 км н/о +10.0 +8.8 92 +6 +6 1010.0 999.1
03 11.06 С 6 22 км н/о +10.0 +8.9 93 +6 +6 1009.8 998.9
04 11.06 С 6 4600 м н/о +9.9 +9.1 95 +6 +6 1009.9 999.0
05 11.06 С 5 40 км н/о +9.9 +9.0 94 +7 +7 1009.9 999.0
06 11.06 С 6 4000 м дождь 9/9 150 м
[Frnb]
+10.4 +9.5 94 +7 +7 1010.1 999.2 +8.8 23
07 11.06 СВ 5 6000 м дождь {морось} 10/10 120 м
[Frnb]
+10.5 +9.8 95 +7 +7 1010.6 999.6
08 11.06 СВ 5 6000 м слаб. морось {дождь} 10/10 150 м
[Frnb]
+10.7 +10.0 95 +8 +8 1011.2 1000.3
09 11.06 СВ 4 7000 м дождь {морось} 10/10 180 м
[Frnb]
+10.9 +10.2 95 +8 +8 1011.6 1000.7
10 11.06 СВ 5 25 км в посл. час дождь {морось} 9/9 180 м
[Frnb]
+11.4 +10.3 93 +9 +9 1011.9 1001.0
11 11.06 СВ 5 25 км в посл. час морось 10/10 180 м
[Frnb]
+11.9 +10.7 92 +9 +9 1012.1 1001.2
12 11.06 С 5 25 км {дождь, морось} 9/9 240 м
[St]
+12.9 +11.2 89 +11 +12 1012.4 1001.5 2
13 11.06 С 6 30 км в посл. час морось 9/9 270 м
[Sc diur, vesp]
+13.1 +10.9 86 +11 +11 1012.4 1001.6
14 11.06 С 6 20 км слаб. ливневой дождь 9/9 270 м
[Cu med, cong]
+12.6 +10.4 86 +10 +11 1012.7 1001.9
15 11.06 С 7 20 км слаб. ливневой дождь 9/9 300 м
[Cu Sc]
+12.7 +10.5 86 +10 +10 1012.7 1001.8
16 11.06 С 7 25 км в посл. час ливневой дождь 9/9 300 м
[St]
+12.8 +10.3 85 +10 +10 1012.9 1002.0
17 11.06 С 7 50 км 10/10 300 м
[St]
+11.9 +9.5 85 +9 +9 1012.9 1002.0
18 11.06 С 7 50 км {ливн. осадки, морось} 10/10 300 м
[St]
+11.4 +9.0 85 +8 +8 1013.3 1002.4 +13.5 2
19 11.06 С 7 60 км 10/10 270 м
[St]
+10.8 +8.9 88 +7 +7 1013.4 1002.5
20 11.06 С 6 8000 м слаб. морось 10/10 210 м
[St]
+10.3 +8.9 91 +7 +7 1013.6 1002.6
21 11.06 С 6 30 км в посл. час морось 10/10 210 м
[St]
+10.1 +8.6 90 +7 +7 1013.6 1002.7
22 11.06 С 6 40 км 10/10 210 м
[St]
+10.1 +8.5 90 +7 +7 1013.4 1002.4
23 11.06 С 5 35 км н/о +9.9 +8.5 91 +7 +7 1013.0 1002.0
00 12.06 С 5 60 км н/о +10.0 +8.5 90 +7 +7 1012.4 1001.4 0.0
01 12.06 СВ 4 50 км н/о +10.1 +8.5 90 +7 +7 1012.1 1001.1
02 12.06 С 4 40 км н/о +10.0 +8.7 92 +7 +7 1011.8 1000.9
03 12.06 С 4 35 км н/о +9.8 +8.7 93 +7 +7 1011.0 1000.0
04 12.06 СВ 4 30 км н/о +9.7 +8.6 93 +7 +7 1011.3 1000.3
05 12.06 С 4 30 км н/о +9.8 +8.6 92 +7 +7 1010.8 999.9
06 12.06 С 4 20 км 10/10 180 м
[St]
+10.0 +8.6 91 +7 +7 1010.8 999.9 +9.7 0.0
07 12.06 СВ 4 10 км слаб. морось 10/10 180 м
[St]
+10.2 +8.8 91 +8 +8 1010.8 999.8
08 12.06 СВ 3 22 км в посл. час морось 10/10 210 м
[St]
+10.8 +8.8 87 +9 +9 1010.5 999.6
09 12.06 С 3 30 км {морось} 9/9 270 м
[St]
+11.4 +8.6 83 +10 +10 1010.2 999.3
10 12.06 С 3 30 км 8/8 400 м
[Sc diur, vesp Ac trans Ci fib]
+12.0 +8.7 80 +11 +13 1010.0 999.2
11 12.06 С 3 30 км 9/6 540 м
[Cu hum Ac As Ci fib]
+14.8 +9.8 72 +14 +14 1009.5 998.7
12 12.06 С 3 40 км {морось} н/о +14.6 +9.1 70 +14 +14 1009.8 999.0 0.0
13 12.06 С 4 35 км 10/10 630 м
[Cu Sc]
+14.5 +8.7 68 +13 +13 1009.5 998.8
14 12.06 С 4 40 км н/о +14.3 +9.0 70 +13 +13 1009.4 998.6
15 12.06 С 4 45 км н/о +14.9 +9.1 68 +14 +14 1009.2 998.4
16 12.06 С 4 50 км н/о +14.3 +9.4 72 +13 +13 1008.9 998.2
17 12.06 С 4 30 км слаб. дождь 10/9 700 м
[Cu Sc As op]
+13.6 +9.4 76 +12 +12 1008.5 997.7
18 12.06 СВ 2 15 км слаб. дождь 10/9 360 м
[Cu Sc As op]
+13.1 +10.4 84 +13 +13 1008.4 997.6 +15.1 0.0
19 12.06 С 1 17 км слаб. дождь 10/9 400 м
[Sc Ac trans]
+12.6 +10.3 86 +13 +13 1008.2 997.4
20 12.06 СЗ 1 12 км слаб. дождь 10/9 300 м
[Sc As op]
+12.2 +10.6 90 +12 +12 1008.4 997.5
21 12.06 СЗ 1 10 км слаб. дождь 10/6 300 м
[Sc As op]
+11.9 +10.7 92 +13 +13 1008.4 997.6
22 12.06 Ю 2 6000 м слаб. дождь 10/9 300 м
[Sc As op]
+11.4 +10.5 94 +10 +10 1008.1 997.2
23 12.06 Ю 2 6000 м слаб. дождь 10/9 150 м
[Sc As op]
+10.9 +10.4 97 +9 +9 1007.6 996.8
00 13.06 Ю 2 7000 м н/о +11.2 +10.9 98 +10 +10 1007.1 996.3 1
01 13.06 ЮЗ 3 7000 м н/о +11.3 +10.9 97 +10 +10 1006.4 995.6
02 13.06 ЮЗ 3 4900 м н/о +11.1 +10.6 97 +9 +9 1005.8 995.0
03 13.06 ЮЗ 3 7000 м н/о +10.9 +10.4 97 +9 +9 1005.4 994.5
04 13.06 ЮЗ 2 9000 м н/о +10.7 +10.1 96 +9 +9 1005.2 994.3
05 13.06 Ю 3 8000 м слаб. дождь 10/8 240 м
[Sc Cs]
+10.7 +9.9 95 +9 +9 1005.3 994.4
06 13.06 ЮЗ 3 10 км слаб. дождь 10/10 120 м
[Sc]
+11.2 +10.6 96 +9 +9 1004.9 994.1 +10.6 2
07 13.06 ЮЗ 4 18 км слаб. дождь 10/9 150 м
[Sc As op]
+11.8 +10.9 94 +9 +10 1004.8 993.9
08 13.06 ЮЗ 7 25 км в посл. час дождь 10/9 240 м
[Sc As op]
+12.4 +10.5 88 +10 +10 1004.7 993.9
09 13.06 ЮЗ 7 30 км слаб. дождь 10/9 360 м
[Sc As op]
+12.3 +10.2 87 +9 +10 1004.6 993.8
10 13.06 ЮЗ 6 20 км слаб. дождь 10/10 400 м
[Cu Sc]
+12.6 +10.5 87 +10 +10 1004.8 994.0
11 13.06 Ю 6 18 км дождь {морось} 10/9 360 м
[Sc As op]
+12.3 +10.3 88 +10 +10 1004.9 994.1
12 13.06 ЮЗ 6 10 км слаб. дождь {морось} 10/10 330 м
[Sc]
+12.4 +10.8 90 +10 +10 1004.9 994.1 0.4
13 13.06 Ю 8 20 км слаб. дождь 10/9 360 м
[Sc As op]
+12.8 +10.9 88 +10 +10 1004.9 994.1
14 13.06 ЮЗ 8 17 км н/о +12.6 +10.9 89 +10 +10 1005.0 994.3
15 13.06 ЮЗ 7 6000 м дождь 10/10 270 м
[Sc]
+12.5 +11.2 92 +10 +10 1005.2 994.4
16 13.06 ЮЗ 6 4000 м слаб. дождь 10/10 210 м
[Frnb]
+12.7 +11.7 94 +10 +10 1005.1 994.3
17 13.06 ЮЗ 5 8000 м слаб. дождь 10/10 210 м
[Sc]
+12.6 +11.7 94 +10 +10 1005.4 994.6
18 13.06 З 4 3700 м дождь 9/9 210 м
[Sc]
+11.7 +10.7 94 +10 +10 1006.1 995.3 +13.5 1
19 13.06 ЮЗ 4 15 км в посл. час дождь 9/8 1050 м
[Sc Ac trans]
+12.0 +11.0 94 +10 +10 1006.6 995.8
20 13.06 ЮЗ 4 7000 м слаб. дождь 10/9 210 м
[Sc Ac trans]
+11.5 +10.7 95 +9 +9 1007.2 996.4
21 13.06 ЮЗ 3 25 км в посл. час дождь 9/6 300 м
[Cu Sc Ac trans]
+11.0 +10.3 95 +9 +9 1008.1 997.2
22 13.06 Ю 3 20 км 9/9 600 м
[Sc]
+11.2 +10.5 95 +9 +9 1008.4 997.5
23 13.06 ЮЗ 2 15 км в посл. час дождь 9/9 150 м
[Sc]
+11.7 +11.3 97 +10 +10 1008.4 997.6
00 14.06 ЮЗ 3 18 км н/о +11.8 +11.4 97 +10 +10 1008.3 997.4 1
01 14.06 Ю 3 11 км н/о +11.9 +11.4 97 +10 +10 1008.2 997.4
02 14.06 Ю 4 5000 м н/о +11.7 +11.1 96 +9 +9 1008.0 997.1
03 14.06 Ю 4 9000 м н/о +11.6 +11.1 97 +9 +9 1007.9 997.1
04 14.06 Ю 5 13 км н/о +11.7 +11.0 95 +9 +9 1008.0 997.1
05 14.06 Ю 5 25 км в посл. час дождь 9/9 180 м
[Sc]
+11.9 +11.3 96 +9 +9 1008.1 997.3
06 14.06 Ю 6 3000 м дождь {морось} 10/10 150 м
[Sc]
+12.2 +11.0 92 +10 +10 1008.2 997.4 +10.9 4
07 14.06 Ю 6 25 км в посл. час морось 10/10 270 м
[Sc]
+12.6 +11.2 91 +10 +10 1008.6 997.8
08 14.06 Ю 6 25 км 10/10 330 м
[Sc]
+13.1 +11.2 88 +11 +11 1009.1 998.2
09 14.06 ЮЗ 6 25 км 8/8 360 м
[Cu Sc Ci fib]
+14.1 +11.7 85 +12 +13 1009.3 998.5
10 14.06 ЮЗ 7 25 км 9/9 570 м
[Cu Sc Ci fib]
+15.8 +11.7 77 +14 +15 1009.5 998.8
11 14.06 Ю 8 30 км 9/9 660 м
[Cu Sc Ac trans Ci fib]
+15.2 +10.2 72 +13 +13 1009.9 999.1
12 14.06 Ю 8 40 км {дождь, морось} н/о +16.0 +9.9 67 +14 +15 1010.0 999.3 0.0
13 14.06 ЮЗ 8 35 км 8/8 630 м
[Cu Sc]
+16.5 +10.8 69 +15 +16 1010.1 999.4
14 14.06 Ю 7 30 км слаб. ливневой дождь 9/9 720 м
[Cu Sc]
+15.9 +10.1 68 +14 +15 1010.5 999.8
15 14.06 Ю 6 30 км в посл. час ливневой дождь 6/6 720 м
[Cu Sc]
+15.9 +10.1 68 +15 +16 1010.5 999.8
16 14.06 Ю 8 30 км 8/8 750 м
[Cu Sc]
+15.8 +9.4 66 +14 +14 1010.6 999.9
17 14.06 ЮЗ 6 50 км н/о +15.7 +9.5 67 +14 +14 1010.6 999.9
18 14.06 ЮЗ 5 50 км н/о +15.6 +8.5 63 +14 +14 1010.9 1000.1 +17.3 0.0
19 14.06 ЮЗ 5 35 км н/о +15.0 +8.2 64 +14 +14 1011.0 1000.3
20 14.06 ЮЗ 2 40 км н/о +13.5 +8.4 71 +13 +13 1011.2 1000.4
21 14.06 Ю 3 55 км н/о +11.6 +8.5 81 +10 +10 1011.7 1000.8
22 14.06 Ю 4 30 км н/о +11.1 +9.5 90 +9 +9 1012.1 1001.2
23 14.06 ЮВ 3 30 км н/о +10.4 +9.2 92 +8 +8 1012.1 1001.1
00 15.06 Ю 2 23 км н/о +10.8 +10.0 95 +10 +10 1012.1 1001.2
01 15.06 Ю 3 24 км н/о +10.8 +10.0 95 +9 +9 1012.1 1001.2
02 15.06 ЮВ 3 30 км н/о +11.3 +10.4 94 +9 +9 1011.6 1000.7
03 15.06 Ю 3 30 км н/о +11.5 +10.4 93 +10 +10 1011.5 1000.6
04 15.06 Ю 2 30 км н/о +10.8 +9.9 94 +9 +9 1011.5 1000.6
05 15.06 Ю 3 30 км н/о +11.2 +10.2 94 +9 +9 1011.4 1000.5
06 15.06 Ю 4 30 км н/о +12.7 +11.1 90 +11 +11 1011.4 1000.6 +9.7
07 15.06 Ю 6 35 км н/о +14.9 +11.2 79 +13 +13 1011.3 1000.5
08 15.06 Ю 7 35 км н/о +14.3 +9.3 72 +12 +12 1011.5 1000.7
09 15.06 Ю 7 50 км н/о +15.1 +9.7 70 +13 +13 1011.7 1000.9
10 15.06 Ю 6 30 км н/о +14.2 +10.2 77 +12 +12 1011.9 1001.1
11 15.06 Ю 6 7000 м н/о +13.1 +11.5 90 +11 +11 1012.2 1001.4
12 15.06 Ю 6 11 км н/о +13.1 +12.2 94 +11 +11 1012.3 1001.4 0.2
13 15.06 Ю 8 1800 м н/о +13.8 +12.1 89 +11 +11 1012.3 1001.5
14 15.06 Ю 7 30 км н/о +15.6 +11.8 78 +14 +14 1012.2 1001.5
15 15.06 Ю 7 35 км н/о +16.7 +12.6 77 +16 +16 1012.2 1001.4
16 15.06 Ю 7 45 км н/о +17.2 +9.1 59 +16 +16 1012.2 1001.5
17 15.06 ЮЗ 6 50 км н/о +16.4 +7.6 56 +15 +15 1012.4 1001.7
18 15.06 Ю 7 60 км н/о +16.4 +7.0 54 +15 +15 1012.6 1001.9 +17.7 0.6
19 15.06 ЮЗ 4 40 км н/о +15.1 +7.2 59 +14 +14 1013.2 1002.4
20 15.06 ЮЗ 3 40 км н/о +13.3 +7.6 68 +12 +12 1013.4 1002.5
21 15.06 ЮЗ 3 30 км н/о +11.4 +7.6 77 +10 +10 1014.1 1003.1
22 15.06 ЮВ 2 45 км н/о +10.9 +7.9 82 +10 +10 1014.5 1003.5
23 15.06 Ю 3 30 км н/о +10.4 +8.9 90 +8 +8 1014.9 1003.9
00 16.06 Ю 2 22 км н/о +9.6 +8.5 93 +8 +8 1015.3 1004.3
01 16.06 Ю 2 17 км н/о +9.3 +8.6 95 +8 +8 1015.2 1004.2
02 16.06 ЮВ 3 10 км н/о +9.0 +8.5 97 +7 +7 1015.0 1004.0
03 16.06 В 2 12 км н/о +9.4 +9.1 98 +8 +8 1015.0 1004.0
04 16.06 ЮВ 2 11 км н/о +9.5 +9.1 97 +8 +8 1014.9 1003.9
05 16.06 ЮВ 2 10 км н/о +10.6 +10.2 97 +9 +9 1015.1 1004.1
06 16.06 ЮВ 3 12 км н/о +11.5 +11.2 98 +10 +10 1015.1 1004.1 +8.9
07 16.06 Ю 4 6000 м н/о +12.7 +12.4 98 +11 +11 1015.1 1004.2
08 16.06 ЮЗ 5 29 км н/о +14.2 +12.8 91 +12 +12 1015.5 1004.7
09 16.06 ЮЗ 4 18 км н/о +14.5 +12.7 89 +13 +13 1015.6 1004.8
10 16.06 ЮЗ 7 30 км н/о +16.4 +13.4 82 +15 +15 1015.7 1004.9
11 16.06 ЮЗ 8
{13}
35 км н/о +17.1 +11.8 71 +16 +16 1016.1 1005.4
12 16.06 ЮЗ 8
{13}
35 км н/о +17.7 +11.5 67 +17 +17 1016.4 1005.7 0.8
13 16.06 ЮЗ 7 45 км н/о +17.7 +11.6 67 +17 +17 1016.7 1006.0

 

Местоположение метеостанции Мидл Уоллоп (Великобритания): широта 51.15 долгота -1.57 высота над уровнем моря 91 м.

В архиве по умолчанию представлена погода в Мидл Уоллоп за последнюю неделю. Архивные данные за месяц целиком и за предыдущие месяцы, начиная с января 2011 года, Вы можете получить, выбрав интересующий диапазон дат из раскрывающегося списка и нажав кнопку "Ввод!".


*Определитесь, кто Вы:
робот инопланетянин человек

Внимание! Время в таблицах - всемирное. Для получения местного времени необходимо прибавить поправку, которая равна 0 ч.

Смотрите также архив погоды в соседних городах и на ближайших метеорологических станциях:

Погода в Боскомб Даун (Великобритания) (13 км)
Погода в Ларкхилле (Великобритания) (17 км)
Погода в Одихеме (Великобритания) (44 км)
Погода в Борнмуте (Великобритания) (45 км)
Погода в Ли-он-те-Соленте (Великобритания) (46 км)
Погода в Линхеме (Великобритания) (48 км)
Погода в Фарнборо (Великобритания) (58 км)
Погода на Острове Торвер (Великобритания) (58 км)
Погода в Бенсоне (Великобритания) (62 км)
Погода на Маяке St. Catherines (Великобритания) (66 км)

Пояснения к столбцам:

Ветер - указаны скорость ветра в м/с - средняя за 10 мин, порывы в срок и между сроками (в фигурных скобках) и направление, откуда дует ветер: С - северный, СВ - северо-восточный, В - восточный, ЮВ - юго-восточный, Ю - южный, ЮЗ - юго-западный, З - западный, СЗ - северо-западный.
Видимость - горизонтальная дальность видимости в метрах или километрах. При видимости от 1 до 10 км при отсутствии осадков обычно наблюдается дымка, при ухудшении видимости до 1 км и менее - туман. В сухую погоду видимость может ухудшаться дымом, пылью или мглою.
Явления - указаны атмосферные явления, наблюдавшиеся в срок или в последний час перед сроком; фигурными скобками обозначены явления, наблюдавшиеся между сроками (за 1-3 часа до срока); квадратными скобками обозначены град или гололедные отложения с указанием их диаметра в мм.
Облачность - указаны через наклонную черту общая и нижняя облачность в баллах и высота нижней границы облаков в метрах; квадратными скобками обозначены формы облаков: Ci - перистые, Cs - перисто-слоистые, Cc - перисто-кучевые, Ac - высококучевые, As - высокослоистые, Sc - слоисто-кучевые, Ns - слоисто-дождевые, Cu - кучевые, Cb - кучево-дождевые. Подробнее классификацию облаков см. в Атласе облаков (PDF).
T - Температура воздуха - температура, измеренная на высоте 2 м над землей.
Td - Температура точки росы - температура, при понижении до которой содержащийся в воздухе водяной пар достигнет насыщения.
f - Относительная влажность воздуха - влажноcть воздуха, измеренная на высоте 2 м над землей.
Te - Эффективная температура - температура, которую ощущает одетый по сезону человек в тени. Характеристика душности погоды. При расчете учитывается влияние влажности воздуха и скорости ветра на теплоощущения человека.
Tes - Эффективная температура на солнце - температура, которую ощущает человек, с поправкой на солнечный нагрев. Характеристика знойности погоды. Зависит от высоты солнца над горизонтом, облачности и скорости ветра. Ночью, в пасмурную погоду, а также при ветре 12 м/с и более поправка равна нулю.
P - Атмосферное давление - приведенное к уровню моря атмосферное давление.
Po - Атмосферное давление - измеренное на уровне метеостанции атмосферное давление.
Tmin - Минимальная температура - минимум температуры воздуха на высоте 2 м над землей.
Tmax - Максимальная температура - максимум температуры воздуха на высоте 2 м над землей.
R - Количество осадков - Количество выпавших осадков за период времени, мм. При наведении курсора мыши на число - период времени, за который выпало указанное количество осадков.
R24 - Количество осадков - Количество выпавших осадков за 24 часа, мм.
S - Снежный покров - Высота снежного покрова, см. При наведении курсора мыши на число - состояние снежного покрова и степень покрытия местности в баллах.